owner,sensor,date,latitude,longitude,vertical_datum,mass_concentration_of_oxygen_in_sea_water,qcFlag 
DISL,ioos:station:DISL:MHPA:1,2017-04-01T00:00:00Z,30.6671,-87.9365,1.346,8.92,1111122 
DISL,ioos:station:DISL:MHPA:1,2017-04-01T00:30:00Z,30.6671,-87.9365,1.309,8.88,1111122 
DISL,ioos:station:DISL:MHPA:1,2017-04-01T01:00:00Z,30.6671,-87.9365,1.264,8.62,1111122 
DISL,ioos:station:DISL:MHPA:1,2017-04-01T01:30:00Z,30.6671,-87.9365,1.218,8.45,1111122 
DISL,ioos:station:DISL:MHPA:1,2017-04-01T02:00:00Z,30.6671,-87.9365,1.175,8.59,1111122 
DISL,ioos:station:DISL:MHPA:1,2017-04-01T02:30:00Z,30.6671,-87.9365,1.129,8.55,1111122 
DISL,ioos:station:DISL:MHPA:1,2017-04-01T03:00:00Z,30.6671,-87.9365,1.088,8.55,1111122 
DISL,ioos:station:DISL:MHPA:1,2017-04-01T03:30:00Z,30.6671,-87.9365,1.059,8.56,1111122 
DISL,ioos:station:DISL:MHPA:1,2017-04-01T04:00:00Z,30.6671,-87.9365,1.033,8.4,1111122 
DISL,ioos:station:DISL:MHPA:1,2017-04-01T04:30:00Z,30.6671,-87.9365,1.01,8.46,1111122 
DISL,ioos:station:DISL:MHPA:1,2017-04-01T05:00:00Z,30.6671,-87.9365,0.992,8.59,1111122 
DISL,ioos:station:DISL:MHPA:1,2017-04-01T05:30:00Z,30.6671,-87.9365,0.977,8.87,1111122 
DISL,ioos:station:DISL:MHPA:1,2017-04-01T06:00:00Z,30.6671,-87.9365,0.967,8.86,1111122 
DISL,ioos:station:DISL:MHPA:1,2017-04-01T06:30:00Z,30.6671,-87.9365,0.956,8.53,1111122 
DISL,ioos:station:DISL:MHPA:1,2017-04-01T07:00:00Z,30.6671,-87.9365,0.943,8.47,1111122 
DISL,ioos:station:DISL:MHPA:1,2017-04-01T07:30:00Z,30.6671,-87.9365,0.936,8.38,1111122 
DISL,ioos:station:DISL:MHPA:1,2017-04-01T08:00:00Z,30.6671,-87.9365,0.936,8.36,1111122 
DISL,ioos:station:DISL:MHPA:1,2017-04-01T08:30:00Z,30.6671,-87.9365,0.933,8.35,1111122 
DISL,ioos:station:DISL:MHPA:1,2017-04-01T09:00:00Z,30.6671,-87.9365,0.937,8.21,1111122 
DISL,ioos:station:DISL:MHPA:1,2017-04-01T09:30:00Z,30.6671,-87.9365,0.958,8.27,1111122 
DISL,ioos:station:DISL:MHPA:1,2017-04-01T10:00:00Z,30.6671,-87.9365,0.984,8.14,1111122 
DISL,ioos:station:DISL:MHPA:1,2017-04-01T10:30:00Z,30.6671,-87.9365,1.02,7.85,1111122 
DISL,ioos:station:DISL:MHPA:1,2017-04-01T11:00:00Z,30.6671,-87.9365,1.063,7.72,1111122 
DISL,ioos:station:DISL:MHPA:1,2017-04-01T11:30:00Z,30.6671,-87.9365,1.103,7.57,1111122 
DISL,ioos:station:DISL:MHPA:1,2017-04-01T12:00:00Z,30.6671,-87.9365,1.132,7.51,1111122 
DISL,ioos:station:DISL:MHPA:1,2017-04-01T12:30:00Z,30.6671,-87.9365,1.158,7.71,1111122 
DISL,ioos:station:DISL:MHPA:1,2017-04-01T13:00:00Z,30.6671,-87.9365,1.189,7.76,1111122 
DISL,ioos:station:DISL:MHPA:1,2017-04-01T13:30:00Z,30.6671,-87.9365,1.203,7.85,1111122 
DISL,ioos:station:DISL:MHPA:1,2017-04-01T14:00:00Z,30.6671,-87.9365,1.197,7.87,1111122 
DISL,ioos:station:DISL:MHPA:1,2017-04-01T14:30:00Z,30.6671,-87.9365,1.216,7.05,1111122 
DISL,ioos:station:DISL:MHPA:1,2017-04-01T15:00:00Z,30.6671,-87.9365,1.236,6.88,1111122 
DISL,ioos:station:DISL:MHPA:1,2017-04-01T15:30:00Z,30.6671,-87.9365,1.26,7.14,1111122 
DISL,ioos:station:DISL:MHPA:1,2017-04-01T16:00:00Z,30.6671,-87.9365,1.278,7.44,1111122 
DISL,ioos:station:DISL:MHPA:1,2017-04-01T16:30:00Z,30.6671,-87.9365,1.299,8.13,1111122 
DISL,ioos:station:DISL:MHPA:1,2017-04-01T17:00:00Z,30.6671,-87.9365,1.334,8.11,1111122 
DISL,ioos:station:DISL:MHPA:1,2017-04-01T17:30:00Z,30.6671,-87.9365,1.349,8.43,1111122 
DISL,ioos:station:DISL:MHPA:1,2017-04-01T18:00:00Z,30.6671,-87.9365,1.376,8.33,1111122 
DISL,ioos:station:DISL:MHPA:1,2017-04-01T18:30:00Z,30.6671,-87.9365,1.39,7.17,1111122 
DISL,ioos:station:DISL:MHPA:1,2017-04-01T19:00:00Z,30.6671,-87.9365,1.411,6.96,1111122 
DISL,ioos:station:DISL:MHPA:1,2017-04-01T19:30:00Z,30.6671,-87.9365,1.427,7.34,1111122 
DISL,ioos:station:DISL:MHPA:1,2017-04-01T20:00:00Z,30.6671,-87.9365,1.455,7.98,1111122 
DISL,ioos:station:DISL:MHPA:1,2017-04-01T20:30:00Z,30.6671,-87.9365,1.468,9.41,1111122 
DISL,ioos:station:DISL:MHPA:1,2017-04-01T21:00:00Z,30.6671,-87.9365,1.471,9.59,1111122 
DISL,ioos:station:DISL:MHPA:1,2017-04-01T21:30:00Z,30.6671,-87.9365,1.457,9.46,1111122 
DISL,ioos:station:DISL:MHPA:1,2017-04-01T22:00:00Z,30.6671,-87.9365,1.433,9.45,1111122 
DISL,ioos:station:DISL:MHPA:1,2017-04-01T22:30:00Z,30.6671,-87.9365,1.417,9.58,1111122 
DISL,ioos:station:DISL:MHPA:1,2017-04-01T23:00:00Z,30.6671,-87.9365,1.384,9.54,1111122 
DISL,ioos:station:DISL:MHPA:1,2017-04-01T23:30:00Z,30.6671,-87.9365,1.36,9.53,1111122 
DISL,ioos:station:DISL:MHPA:1,2017-04-02T00:00:00Z,30.6671,-87.9365,1.323,9.54,1111122 
DISL,ioos:station:DISL:MHPA:1,2017-04-02T00:30:00Z,30.6671,-87.9365,1.276,9.48,1111122 
DISL,ioos:station:DISL:MHPA:1,2017-04-02T01:00:00Z,30.6671,-87.9365,1.239,9.56,1111122 
DISL,ioos:station:DISL:MHPA:1,2017-04-02T01:30:00Z,30.6671,-87.9365,1.205,9.58,1111122 
DISL,ioos:station:DISL:MHPA:1,2017-04-02T02:00:00Z,30.6671,-87.9365,1.162,9.88,1111122 
DISL,ioos:station:DISL:MHPA:1,2017-04-02T02:30:00Z,30.6671,-87.9365,1.116,9.75,1111122 
DISL,ioos:station:DISL:MHPA:1,2017-04-02T03:00:00Z,30.6671,-87.9365,1.077,9.42,1111122 
DISL,ioos:station:DISL:MHPA:1,2017-04-02T03:30:00Z,30.6671,-87.9365,1.046,8.81,1111122 
DISL,ioos:station:DISL:MHPA:1,2017-04-02T04:00:00Z,30.6671,-87.9365,1.015,8.62,1111122 
DISL,ioos:station:DISL:MHPA:1,2017-04-02T04:30:00Z,30.6671,-87.9365,0.984,8.5,1111122 
DISL,ioos:station:DISL:MHPA:1,2017-04-02T05:00:00Z,30.6671,-87.9365,0.956,8.48,1111122 
DISL,ioos:station:DISL:MHPA:1,2017-04-02T05:30:00Z,30.6671,-87.9365,0.931,8.27,1111122 
DISL,ioos:station:DISL:MHPA:1,2017-04-02T06:00:00Z,30.6671,-87.9365,0.912,7.98,1111122 
DISL,ioos:station:DISL:MHPA:1,2017-04-02T06:30:00Z,30.6671,-87.9365,0.895,8.03,1111122 
DISL,ioos:station:DISL:MHPA:1,2017-04-02T07:00:00Z,30.6671,-87.9365,0.88,8.15,1111122 
DISL,ioos:station:DISL:MHPA:1,2017-04-02T07:30:00Z,30.6671,-87.9365,0.869,8.14,1111122 
DISL,ioos:station:DISL:MHPA:1,2017-04-02T08:00:00Z,30.6671,-87.9365,0.864,7.96,1111122 
DISL,ioos:station:DISL:MHPA:1,2017-04-02T08:30:00Z,30.6671,-87.9365,0.86,8.03,1111122 
DISL,ioos:station:DISL:MHPA:1,2017-04-02T09:00:00Z,30.6671,-87.9365,0.86,8.14,1111122 
DISL,ioos:station:DISL:MHPA:1,2017-04-02T09:30:00Z,30.6671,-87.9365,0.864,8.18,1111122 
DISL,ioos:station:DISL:MHPA:1,2017-04-02T10:00:00Z,30.6671,-87.9365,0.877,8.1,1111122 
DISL,ioos:station:DISL:MHPA:1,2017-04-02T10:30:00Z,30.6671,-87.9365,0.898,8.19,1111122 
DISL,ioos:station:DISL:MHPA:1,2017-04-02T11:00:00Z,30.6671,-87.9365,0.928,8.05,1111122 
DISL,ioos:station:DISL:MHPA:1,2017-04-02T11:30:00Z,30.6671,-87.9365,0.959,8.21,1111122 
DISL,ioos:station:DISL:MHPA:1,2017-04-02T12:00:00Z,30.6671,-87.9365,0.996,8.11,1111122 
DISL,ioos:station:DISL:MHPA:1,2017-04-02T12:30:00Z,30.6671,-87.9365,1.039,7.46,1111122 
DISL,ioos:station:DISL:MHPA:1,2017-04-02T13:00:00Z,30.6671,-87.9365,1.081,7.52,1111122 
DISL,ioos:station:DISL:MHPA:1,2017-04-02T13:30:00Z,30.6671,-87.9365,1.097,7.08,1111122 
DISL,ioos:station:DISL:MHPA:1,2017-04-02T14:00:00Z,30.6671,-87.9365,1.134,6.75,1111122 
DISL,ioos:station:DISL:MHPA:1,2017-04-02T14:30:00Z,30.6671,-87.9365,1.174,7.0,1111122 
DISL,ioos:station:DISL:MHPA:1,2017-04-02T15:00:00Z,30.6671,-87.9365,1.201,7.2,1111122 
DISL,ioos:station:DISL:MHPA:1,2017-04-02T15:30:00Z,30.6671,-87.9365,1.227,7.3,1111122 
DISL,ioos:station:DISL:MHPA:1,2017-04-02T16:00:00Z,30.6671,-87.9365,1.266,7.56,1111122 
DISL,ioos:station:DISL:MHPA:1,2017-04-02T16:30:00Z,30.6671,-87.9365,1.315,8.67,1111122 
DISL,ioos:station:DISL:MHPA:1,2017-04-02T17:00:00Z,30.6671,-87.9365,1.37,8.12,1111122 
DISL,ioos:station:DISL:MHPA:1,2017-04-02T17:30:00Z,30.6671,-87.9365,1.402,8.84,1111122 
DISL,ioos:station:DISL:MHPA:1,2017-04-02T18:00:00Z,30.6671,-87.9365,1.456,8.61,1111122 
DISL,ioos:station:DISL:MHPA:1,2017-04-02T18:30:00Z,30.6671,-87.9365,1.448,8.71,1111122 
DISL,ioos:station:DISL:MHPA:1,2017-04-02T19:00:00Z,30.6671,-87.9365,1.448,8.72,1111122 
DISL,ioos:station:DISL:MHPA:1,2017-04-02T19:30:00Z,30.6671,-87.9365,1.483,9.13,1111122 
DISL,ioos:station:DISL:MHPA:1,2017-04-02T20:00:00Z,30.6671,-87.9365,1.499,8.95,1111122 
DISL,ioos:station:DISL:MHPA:1,2017-04-02T20:30:00Z,30.6671,-87.9365,1.497,9.01,1111122 
DISL,ioos:station:DISL:MHPA:1,2017-04-02T21:00:00Z,30.6671,-87.9365,1.512,8.82,1111122 
DISL,ioos:station:DISL:MHPA:1,2017-04-02T21:30:00Z,30.6671,-87.9365,1.491,8.94,1111122 
DISL,ioos:station:DISL:MHPA:1,2017-04-02T22:00:00Z,30.6671,-87.9365,1.478,8.94,1111122 
DISL,ioos:station:DISL:MHPA:1,2017-04-02T22:30:00Z,30.6671,-87.9365,1.499,9.26,1111122 
DISL,ioos:station:DISL:MHPA:1,2017-04-02T23:00:00Z,30.6671,-87.9365,1.481,9.16,1111122 
DISL,ioos:station:DISL:MHPA:1,2017-04-02T23:30:00Z,30.6671,-87.9365,1.5,9.2,1111122 
DISL,ioos:station:DISL:MHPA:1,2017-04-03T00:00:00Z,30.6671,-87.9365,1.484,9.14,1111122 
DISL,ioos:station:DISL:MHPA:1,2017-04-03T00:30:00Z,30.6671,-87.9365,1.478,8.71,1111122 
DISL,ioos:station:DISL:MHPA:1,2017-04-03T01:00:00Z,30.6671,-87.9365,1.444,8.79,1111122 
DISL,ioos:station:DISL:MHPA:1,2017-04-03T01:30:00Z,30.6671,-87.9365,1.404,8.73,1111122 
DISL,ioos:station:DISL:MHPA:1,2017-04-03T02:00:00Z,30.6671,-87.9365,1.379,8.87,1111122 
DISL,ioos:station:DISL:MHPA:1,2017-04-03T02:30:00Z,30.6671,-87.9365,1.365,8.74,1111122 
DISL,ioos:station:DISL:MHPA:1,2017-04-03T03:00:00Z,30.6671,-87.9365,1.375,8.69,1111122 
DISL,ioos:station:DISL:MHPA:1,2017-04-03T03:30:00Z,30.6671,-87.9365,1.36,8.64,1111122 
DISL,ioos:station:DISL:MHPA:1,2017-04-03T04:00:00Z,30.6671,-87.9365,1.35,8.4,1111122 
DISL,ioos:station:DISL:MHPA:1,2017-04-03T04:30:00Z,30.6671,-87.9365,1.321,8.32,1111122 
DISL,ioos:station:DISL:MHPA:1,2017-04-03T05:00:00Z,30.6671,-87.9365,1.296,8.31,1111122 
DISL,ioos:station:DISL:MHPA:1,2017-04-03T05:30:00Z,30.6671,-87.9365,1.287,8.18,1111122 
DISL,ioos:station:DISL:MHPA:1,2017-04-03T06:00:00Z,30.6671,-87.9365,1.273,8.22,1111122 
DISL,ioos:station:DISL:MHPA:1,2017-04-03T06:30:00Z,30.6671,-87.9365,1.262,7.92,1111122 
DISL,ioos:station:DISL:MHPA:1,2017-04-03T07:00:00Z,30.6671,-87.9365,1.289,7.97,1111122 
DISL,ioos:station:DISL:MHPA:1,2017-04-03T07:30:00Z,30.6671,-87.9365,1.301,7.94,1111122 
DISL,ioos:station:DISL:MHPA:1,2017-04-03T08:00:00Z,30.6671,-87.9365,1.297,7.88,1111122 
DISL,ioos:station:DISL:MHPA:1,2017-04-03T08:30:00Z,30.6671,-87.9365,1.32,7.71,1111122 
DISL,ioos:station:DISL:MHPA:1,2017-04-03T09:00:00Z,30.6671,-87.9365,1.349,7.65,1111122 
DISL,ioos:station:DISL:MHPA:1,2017-04-03T09:30:00Z,30.6671,-87.9365,1.322,7.63,1111122 
DISL,ioos:station:DISL:MHPA:1,2017-04-03T10:00:00Z,30.6671,-87.9365,1.307,7.69,1111122 
DISL,ioos:station:DISL:MHPA:1,2017-04-03T10:30:00Z,30.6671,-87.9365,1.339,7.58,1111122 
DISL,ioos:station:DISL:MHPA:1,2017-04-03T11:00:00Z,30.6671,-87.9365,1.373,7.55,1111122 
DISL,ioos:station:DISL:MHPA:1,2017-04-03T11:30:00Z,30.6671,-87.9365,1.403,7.39,1111122 
DISL,ioos:station:DISL:MHPA:1,2017-04-03T12:00:00Z,30.6671,-87.9365,1.391,7.49,1111122 
DISL,ioos:station:DISL:MHPA:1,2017-04-03T12:30:00Z,30.6671,-87.9365,1.421,7.31,1111122 
DISL,ioos:station:DISL:MHPA:1,2017-04-03T13:00:00Z,30.6671,-87.9365,1.387,7.64,1111122 
DISL,ioos:station:DISL:MHPA:1,2017-04-03T13:30:00Z,30.6671,-87.9365,1.3,7.55,1111122 
DISL,ioos:station:DISL:MHPA:1,2017-04-03T14:00:00Z,30.6671,-87.9365,1.259,7.55,1111122 
DISL,ioos:station:DISL:MHPA:1,2017-04-03T14:30:00Z,30.6671,-87.9365,1.267,7.5,1111122 
DISL,ioos:station:DISL:MHPA:1,2017-04-03T15:00:00Z,30.6671,-87.9365,1.263,6.83,1111122 
DISL,ioos:station:DISL:MHPA:1,2017-04-03T15:30:00Z,30.6671,-87.9365,1.199,6.83,1111122 
DISL,ioos:station:DISL:MHPA:1,2017-04-03T16:00:00Z,30.6671,-87.9365,1.228,7.08,1111122 
DISL,ioos:station:DISL:MHPA:1,2017-04-03T16:30:00Z,30.6671,-87.9365,1.203,7.46,1111122 
DISL,ioos:station:DISL:MHPA:1,2017-04-03T17:00:00Z,30.6671,-87.9365,1.505,7.32,1111122 
DISL,ioos:station:DISL:MHPA:1,2017-04-03T17:30:00Z,30.6671,-87.9365,1.442,7.23,1111122 
DISL,ioos:station:DISL:MHPA:1,2017-04-03T18:00:00Z,30.6671,-87.9365,1.456,7.56,1111122 
DISL,ioos:station:DISL:MHPA:1,2017-04-03T18:30:00Z,30.6671,-87.9365,1.387,7.57,1111122 
DISL,ioos:station:DISL:MHPA:1,2017-04-03T19:00:00Z,30.6671,-87.9365,1.33,7.52,1111122 
DISL,ioos:station:DISL:MHPA:1,2017-04-03T19:30:00Z,30.6671,-87.9365,1.258,7.42,1111122 
DISL,ioos:station:DISL:MHPA:1,2017-04-03T20:00:00Z,30.6671,-87.9365,1.211,7.6,1111122 
DISL,ioos:station:DISL:MHPA:1,2017-04-03T20:30:00Z,30.6671,-87.9365,1.203,7.76,1111122 
DISL,ioos:station:DISL:MHPA:1,2017-04-03T21:00:00Z,30.6671,-87.9365,1.362,7.71,1111122 
DISL,ioos:station:DISL:MHPA:1,2017-04-03T21:30:00Z,30.6671,-87.9365,1.444,7.49,1111122 
DISL,ioos:station:DISL:MHPA:1,2017-04-03T22:00:00Z,30.6671,-87.9365,1.553,7.7,1111122 
DISL,ioos:station:DISL:MHPA:1,2017-04-03T22:30:00Z,30.6671,-87.9365,1.606,7.83,1111122 
DISL,ioos:station:DISL:MHPA:1,2017-04-03T23:00:00Z,30.6671,-87.9365,1.599,7.89,1111122 
DISL,ioos:station:DISL:MHPA:1,2017-04-03T23:30:00Z,30.6671,-87.9365,1.555,7.92,1111122 
DISL,ioos:station:DISL:MHPA:1,2017-04-04T00:00:00Z,30.6671,-87.9365,1.539,7.9,1111122 
DISL,ioos:station:DISL:MHPA:1,2017-04-04T00:30:00Z,30.6671,-87.9365,1.517,7.97,1111122 
DISL,ioos:station:DISL:MHPA:1,2017-04-04T01:00:00Z,30.6671,-87.9365,1.474,7.99,1111122 
DISL,ioos:station:DISL:MHPA:1,2017-04-04T01:30:00Z,30.6671,-87.9365,1.468,7.93,1111122 
DISL,ioos:station:DISL:MHPA:1,2017-04-04T02:00:00Z,30.6671,-87.9365,1.473,8.14,1111122 
DISL,ioos:station:DISL:MHPA:1,2017-04-04T02:30:00Z,30.6671,-87.9365,1.48,7.89,1111122 
DISL,ioos:station:DISL:MHPA:1,2017-04-04T03:00:00Z,30.6671,-87.9365,1.44,7.97,1111122 
DISL,ioos:station:DISL:MHPA:1,2017-04-04T03:30:00Z,30.6671,-87.9365,1.406,7.83,1111122 
DISL,ioos:station:DISL:MHPA:1,2017-04-04T04:00:00Z,30.6671,-87.9365,1.374,7.84,1111122 
DISL,ioos:station:DISL:MHPA:1,2017-04-04T04:30:00Z,30.6671,-87.9365,1.323,7.71,1111122 
DISL,ioos:station:DISL:MHPA:1,2017-04-04T05:00:00Z,30.6671,-87.9365,1.29,7.65,1111122 
DISL,ioos:station:DISL:MHPA:1,2017-04-04T05:30:00Z,30.6671,-87.9365,1.259,7.67,1111122 
DISL,ioos:station:DISL:MHPA:1,2017-04-04T06:00:00Z,30.6671,-87.9365,1.218,7.71,1111122 
DISL,ioos:station:DISL:MHPA:1,2017-04-04T06:30:00Z,30.6671,-87.9365,1.185,7.92,1111122 
DISL,ioos:station:DISL:MHPA:1,2017-04-04T07:00:00Z,30.6671,-87.9365,1.156,7.66,1111122 
DISL,ioos:station:DISL:MHPA:1,2017-04-04T07:30:00Z,30.6671,-87.9365,1.14,7.68,1111122 
DISL,ioos:station:DISL:MHPA:1,2017-04-04T08:00:00Z,30.6671,-87.9365,1.122,7.27,1111122 
DISL,ioos:station:DISL:MHPA:1,2017-04-04T08:30:00Z,30.6671,-87.9365,1.091,6.82,1111122 
DISL,ioos:station:DISL:MHPA:1,2017-04-04T09:00:00Z,30.6671,-87.9365,1.062,6.73,1111122 
DISL,ioos:station:DISL:MHPA:1,2017-04-04T09:30:00Z,30.6671,-87.9365,1.04,6.79,1111122 
DISL,ioos:station:DISL:MHPA:1,2017-04-04T10:00:00Z,30.6671,-87.9365,1.024,6.92,1111122 
DISL,ioos:station:DISL:MHPA:1,2017-04-04T11:00:00Z,30.6671,-87.9365,1.005,6.9,1111122 
DISL,ioos:station:DISL:MHPA:1,2017-04-04T11:30:00Z,30.6671,-87.9365,1.002,6.81,1111122 
DISL,ioos:station:DISL:MHPA:1,2017-04-04T12:00:00Z,30.6671,-87.9365,0.999,6.62,1111122 
DISL,ioos:station:DISL:MHPA:1,2017-04-04T12:30:00Z,30.6671,-87.9365,0.999,6.79,1111122 
DISL,ioos:station:DISL:MHPA:1,2017-04-04T13:00:00Z,30.6671,-87.9365,1.014,6.5,1111122 
DISL,ioos:station:DISL:MHPA:1,2017-04-04T13:30:00Z,30.6671,-87.9365,1.04,6.88,1111122 
DISL,ioos:station:DISL:MHPA:1,2017-04-04T14:00:00Z,30.6671,-87.9365,1.066,7.21,1111122 
DISL,ioos:station:DISL:MHPA:1,2017-04-04T15:00:00Z,30.6671,-87.9365,1.143,7.3,1111122 
DISL,ioos:station:DISL:MHPA:1,2017-04-04T15:30:00Z,30.6671,-87.9365,1.198,7.23,1111122 
DISL,ioos:station:DISL:MHPA:1,2017-04-04T16:00:00Z,30.6671,-87.9365,1.223,7.17,1111122 
DISL,ioos:station:DISL:MHPA:1,2017-04-04T16:30:00Z,30.6671,-87.9365,1.275,7.24,1111122 
DISL,ioos:station:DISL:MHPA:1,2017-04-04T17:00:00Z,30.6671,-87.9365,1.298,7.27,1111122 
DISL,ioos:station:DISL:MHPA:1,2017-04-04T17:30:00Z,30.6671,-87.9365,1.321,8.03,1111122 
DISL,ioos:station:DISL:MHPA:1,2017-04-04T18:00:00Z,30.6671,-87.9365,1.343,7.22,1111122 
DISL,ioos:station:DISL:MHPA:1,2017-04-04T18:30:00Z,30.6671,-87.9365,1.365,7.08,1111122 
DISL,ioos:station:DISL:MHPA:1,2017-04-04T19:00:00Z,30.6671,-87.9365,1.421,7.03,1111122 
DISL,ioos:station:DISL:MHPA:1,2017-04-04T19:30:00Z,30.6671,-87.9365,1.465,9.04,1111122 
DISL,ioos:station:DISL:MHPA:1,2017-04-04T20:00:00Z,30.6671,-87.9365,1.484,9.26,1111122 
DISL,ioos:station:DISL:MHPA:1,2017-04-04T20:30:00Z,30.6671,-87.9365,1.515,9.26,1111122 
DISL,ioos:station:DISL:MHPA:1,2017-04-04T21:00:00Z,30.6671,-87.9365,1.534,9.3,1111122 
DISL,ioos:station:DISL:MHPA:1,2017-04-04T21:30:00Z,30.6671,-87.9365,1.542,9.66,1111122 
DISL,ioos:station:DISL:MHPA:1,2017-04-04T22:00:00Z,30.6671,-87.9365,1.552,9.64,1111122 
DISL,ioos:station:DISL:MHPA:1,2017-04-04T22:30:00Z,30.6671,-87.9365,1.55,9.75,1111122 
DISL,ioos:station:DISL:MHPA:1,2017-04-04T23:00:00Z,30.6671,-87.9365,1.536,9.53,1111122 
DISL,ioos:station:DISL:MHPA:1,2017-04-04T23:30:00Z,30.6671,-87.9365,1.519,9.79,1111122 
DISL,ioos:station:DISL:MHPA:1,2017-04-05T00:00:00Z,30.6671,-87.9365,1.531,9.87,1111122 
DISL,ioos:station:DISL:MHPA:1,2017-04-05T00:30:00Z,30.6671,-87.9365,1.497,9.81,1111122 
DISL,ioos:station:DISL:MHPA:1,2017-04-05T01:00:00Z,30.6671,-87.9365,1.482,9.64,1111122 
DISL,ioos:station:DISL:MHPA:1,2017-04-05T01:30:00Z,30.6671,-87.9365,1.469,9.37,1111122 
DISL,ioos:station:DISL:MHPA:1,2017-04-05T02:00:00Z,30.6671,-87.9365,1.458,9.59,1111122 
DISL,ioos:station:DISL:MHPA:1,2017-04-05T02:30:00Z,30.6671,-87.9365,1.43,9.63,1111122 
DISL,ioos:station:DISL:MHPA:1,2017-04-05T03:00:00Z,30.6671,-87.9365,1.408,9.53,1111122 
DISL,ioos:station:DISL:MHPA:1,2017-04-05T03:30:00Z,30.6671,-87.9365,1.393,9.29,1111122 
DISL,ioos:station:DISL:MHPA:1,2017-04-05T04:00:00Z,30.6671,-87.9365,1.368,9.16,1111122 
DISL,ioos:station:DISL:MHPA:1,2017-04-05T04:30:00Z,30.6671,-87.9365,1.343,9.19,1111122 
DISL,ioos:station:DISL:MHPA:1,2017-04-05T05:00:00Z,30.6671,-87.9365,1.326,8.95,1111122 
DISL,ioos:station:DISL:MHPA:1,2017-04-05T05:30:00Z,30.6671,-87.9365,1.297,8.62,1111122 
DISL,ioos:station:DISL:MHPA:1,2017-04-05T06:00:00Z,30.6671,-87.9365,1.349,8.87,1111122 
DISL,ioos:station:DISL:MHPA:1,2017-04-05T06:30:00Z,30.6671,-87.9365,1.345,8.72,1111122 
DISL,ioos:station:DISL:MHPA:1,2017-04-05T07:00:00Z,30.6671,-87.9365,1.3,8.57,1111122 
DISL,ioos:station:DISL:MHPA:1,2017-04-05T07:30:00Z,30.6671,-87.9365,1.297,8.8,1111122 
DISL,ioos:station:DISL:MHPA:1,2017-04-05T08:00:00Z,30.6671,-87.9365,1.283,8.2,1111122 
DISL,ioos:station:DISL:MHPA:1,2017-04-05T08:30:00Z,30.6671,-87.9365,1.259,7.78,1111122 
DISL,ioos:station:DISL:MHPA:1,2017-04-05T09:00:00Z,30.6671,-87.9365,1.247,7.92,1111122 
DISL,ioos:station:DISL:MHPA:1,2017-04-05T09:30:00Z,30.6671,-87.9365,1.234,7.66,1111122 
DISL,ioos:station:DISL:MHPA:1,2017-04-05T10:00:00Z,30.6671,-87.9365,1.234,7.51,1111122 
DISL,ioos:station:DISL:MHPA:1,2017-04-05T10:30:00Z,30.6671,-87.9365,1.255,7.46,1111122 
DISL,ioos:station:DISL:MHPA:1,2017-04-05T11:00:00Z,30.6671,-87.9365,1.246,7.32,1111122 
DISL,ioos:station:DISL:MHPA:1,2017-04-05T11:30:00Z,30.6671,-87.9365,1.247,7.6,1111122 
DISL,ioos:station:DISL:MHPA:1,2017-04-05T12:00:00Z,30.6671,-87.9365,1.289,7.86,1111122 
DISL,ioos:station:DISL:MHPA:1,2017-04-05T12:30:00Z,30.6671,-87.9365,1.301,7.94,1111122 
DISL,ioos:station:DISL:MHPA:1,2017-04-05T13:00:00Z,30.6671,-87.9365,1.337,7.82,1111122 
DISL,ioos:station:DISL:MHPA:1,2017-04-05T13:30:00Z,30.6671,-87.9365,1.379,7.74,1111122 
DISL,ioos:station:DISL:MHPA:1,2017-04-05T14:00:00Z,30.6671,-87.9365,1.442,7.8,1111122 
DISL,ioos:station:DISL:MHPA:1,2017-04-05T14:30:00Z,30.6671,-87.9365,1.499,7.86,1111122 
DISL,ioos:station:DISL:MHPA:1,2017-04-05T15:00:00Z,30.6671,-87.9365,1.543,7.81,1111122 
DISL,ioos:station:DISL:MHPA:1,2017-04-05T15:30:00Z,30.6671,-87.9365,1.546,7.74,1111122 
DISL,ioos:station:DISL:MHPA:1,2017-04-05T16:00:00Z,30.6671,-87.9365,1.558,7.65,1111122 
DISL,ioos:station:DISL:MHPA:1,2017-04-05T16:30:00Z,30.6671,-87.9365,1.569,7.59,1111122 
DISL,ioos:station:DISL:MHPA:1,2017-04-05T17:00:00Z,30.6671,-87.9365,1.576,7.73,1111122 
DISL,ioos:station:DISL:MHPA:1,2017-04-05T17:30:00Z,30.6671,-87.9365,1.6,7.79,1111122 
DISL,ioos:station:DISL:MHPA:1,2017-04-05T18:00:00Z,30.6671,-87.9365,1.597,7.7,1111122 
DISL,ioos:station:DISL:MHPA:1,2017-04-05T18:30:00Z,30.6671,-87.9365,1.612,7.79,1111122 
DISL,ioos:station:DISL:MHPA:1,2017-04-05T19:30:00Z,30.6671,-87.9365,1.622,7.81,1111122 
DISL,ioos:station:DISL:MHPA:1,2017-04-05T20:00:00Z,30.6671,-87.9365,1.625,8.06,1111122 
DISL,ioos:station:DISL:MHPA:1,2017-04-05T20:30:00Z,30.6671,-87.9365,1.604,8.05,1111122 
DISL,ioos:station:DISL:MHPA:1,2017-04-05T21:00:00Z,30.6671,-87.9365,1.592,7.93,1111122 
DISL,ioos:station:DISL:MHPA:1,2017-04-05T21:30:00Z,30.6671,-87.9365,1.601,8.19,1111122 
DISL,ioos:station:DISL:MHPA:1,2017-04-05T22:00:00Z,30.6671,-87.9365,1.611,8.15,1111122 
DISL,ioos:station:DISL:MHPA:1,2017-04-05T22:30:00Z,30.6671,-87.9365,1.607,8.24,1111122 
DISL,ioos:station:DISL:MHPA:1,2017-04-05T23:00:00Z,30.6671,-87.9365,1.612,8.13,1111122 
DISL,ioos:station:DISL:MHPA:1,2017-04-05T23:30:00Z,30.6671,-87.9365,1.612,8.06,1111122 
DISL,ioos:station:DISL:MHPA:1,2017-04-06T00:00:00Z,30.6671,-87.9365,1.602,7.95,1111122 
DISL,ioos:station:DISL:MHPA:1,2017-04-06T00:30:00Z,30.6671,-87.9365,1.582,7.68,1111122 
DISL,ioos:station:DISL:MHPA:1,2017-04-06T01:00:00Z,30.6671,-87.9365,1.581,7.83,1111122 
DISL,ioos:station:DISL:MHPA:1,2017-04-06T01:30:00Z,30.6671,-87.9365,1.563,8.07,1111122 
DISL,ioos:station:DISL:MHPA:1,2017-04-06T02:00:00Z,30.6671,-87.9365,1.522,8.38,1111122 
DISL,ioos:station:DISL:MHPA:1,2017-04-06T02:30:00Z,30.6671,-87.9365,1.471,8.24,1111122 
DISL,ioos:station:DISL:MHPA:1,2017-04-06T03:00:00Z,30.6671,-87.9365,1.416,8.18,1111122 
DISL,ioos:station:DISL:MHPA:1,2017-04-06T03:30:00Z,30.6671,-87.9365,1.361,8.02,1111122 
DISL,ioos:station:DISL:MHPA:1,2017-04-06T04:00:00Z,30.6671,-87.9365,1.28,7.93,1111122 
DISL,ioos:station:DISL:MHPA:1,2017-04-06T04:30:00Z,30.6671,-87.9365,1.236,7.89,1111122 
DISL,ioos:station:DISL:MHPA:1,2017-04-06T05:00:00Z,30.6671,-87.9365,1.219,7.76,1111122 
DISL,ioos:station:DISL:MHPA:1,2017-04-06T05:30:00Z,30.6671,-87.9365,1.184,7.76,1111122 
DISL,ioos:station:DISL:MHPA:1,2017-04-06T06:00:00Z,30.6671,-87.9365,1.134,7.88,1111122 
DISL,ioos:station:DISL:MHPA:1,2017-04-06T06:30:00Z,30.6671,-87.9365,1.097,7.79,1111122 
DISL,ioos:station:DISL:MHPA:1,2017-04-06T07:00:00Z,30.6671,-87.9365,1.074,7.78,1111122 
DISL,ioos:station:DISL:MHPA:1,2017-04-06T07:30:00Z,30.6671,-87.9365,1.048,7.74,1111122 
DISL,ioos:station:DISL:MHPA:1,2017-04-06T08:00:00Z,30.6671,-87.9365,1.015,7.69,1111122 
DISL,ioos:station:DISL:MHPA:1,2017-04-06T08:30:00Z,30.6671,-87.9365,0.991,7.61,1111122 
DISL,ioos:station:DISL:MHPA:1,2017-04-06T09:00:00Z,30.6671,-87.9365,0.967,7.57,1111122 
DISL,ioos:station:DISL:MHPA:1,2017-04-06T09:30:00Z,30.6671,-87.9365,0.936,7.64,1111122 
DISL,ioos:station:DISL:MHPA:1,2017-04-06T10:00:00Z,30.6671,-87.9365,0.901,7.5,1111122 
DISL,ioos:station:DISL:MHPA:1,2017-04-06T10:30:00Z,30.6671,-87.9365,0.867,7.54,1111122 
DISL,ioos:station:DISL:MHPA:1,2017-04-06T11:00:00Z,30.6671,-87.9365,0.838,7.51,1111122 
DISL,ioos:station:DISL:MHPA:1,2017-04-06T11:30:00Z,30.6671,-87.9365,0.816,7.51,1111122 
DISL,ioos:station:DISL:MHPA:1,2017-04-06T12:00:00Z,30.6671,-87.9365,0.809,7.44,1111122 
DISL,ioos:station:DISL:MHPA:1,2017-04-06T12:30:00Z,30.6671,-87.9365,0.814,7.54,1111122 
DISL,ioos:station:DISL:MHPA:1,2017-04-06T13:00:00Z,30.6671,-87.9365,0.821,7.41,1111122 
DISL,ioos:station:DISL:MHPA:1,2017-04-06T13:30:00Z,30.6671,-87.9365,0.808,7.52,1111122 
DISL,ioos:station:DISL:MHPA:1,2017-04-06T14:00:00Z,30.6671,-87.9365,0.788,7.58,1111122 
DISL,ioos:station:DISL:MHPA:1,2017-04-06T14:30:00Z,30.6671,-87.9365,0.772,7.61,1111122 
DISL,ioos:station:DISL:MHPA:1,2017-04-06T15:00:00Z,30.6671,-87.9365,0.764,7.81,1111122 
DISL,ioos:station:DISL:MHPA:1,2017-04-06T15:30:00Z,30.6671,-87.9365,0.764,7.94,1111122 
DISL,ioos:station:DISL:MHPA:1,2017-04-06T16:00:00Z,30.6671,-87.9365,0.765,8.09,1111122 
DISL,ioos:station:DISL:MHPA:1,2017-04-06T16:30:00Z,30.6671,-87.9365,0.764,8.19,1111122 
DISL,ioos:station:DISL:MHPA:1,2017-04-06T17:00:00Z,30.6671,-87.9365,0.766,8.24,1111122 